Nashua, NH

8:52 AM EST on December 09, 2016 (GMT -0500)
Boire

Weather History for KASH - February, 2013

Change the Weather History Date:

Wednesday, February 27, 2013

  Actual Average Record
Temperature  
Mean Temperature 36 °F -  
Max Temperature 39 °F 38 °F 60 °F (1976)
Min Temperature 32 °F 15 °F -12 °F (1993)
Degree Days  
Heating Degree Days 30    
Moisture  
Dew Point 33 °F    
Average Humidity 90    
Maximum Humidity 96    
Minimum Humidity 76    
Precipitation  
Precipitation 0.92 in - - ()
Sea Level Pressure  
Sea Level Pressure 30.21 in    
Wind  
Wind Speed 7 mph (NE)    
Max Wind Speed 16 mph    
Max Gust Speed 24 mph    
Visibility 3 miles    
Events Rain    
Averages and records for this station are not official NWS values.
T = Trace of Precipitation, MM = Missing Value Source: NWS Daily Summary

Daily Weather History Graph

Daily Weather History Graph

Search for Another Location

Airport or City:

Trip Planner

Search our weather history database for the weather conditions in past years. The results will help you decide how hot, cold, wet, or windy it might be!

Date:

Astronomy

Feb. 27, 2013 Rise Set
Actual Time 6:24 AM EST 5:33 PM EST
Civil Twilight 5:56 AM EST 6:01 PM EST
Nautical Twilight 5:23 AM EST 6:34 PM EST
Astronomical Twilight 4:50 AM EST 7:07 PM EST
Moon 7:56 PM EST (2/27) 6:54 AM EST (2/27)
Length of Visible Light 12h 05m
Length of Day
11h 08m
Waning Gibbous, 96% of the Moon is Illuminated
Feb 27
Waning Gibbous
Mar 4
Last Quarter
Mar 11
New
Mar 19
First Quarter
Mar 27
Full

Hourly Weather History & Observations

Time (EST) Temp. Windchill Dew Point Humidity Pressure Visibility Wind Dir Wind Speed Gust Speed Precip Events Conditions
12:51 AM 34.0 °F 29.8 °F 28.0 °F 79% 30.92 in 10.0 mi NNE 4.6 mph - N/A   Overcast
1:01 AM 33.8 °F - 28.4 °F 81% 30.15 in 10.0 mi Calm Calm - N/A   Overcast
1:51 AM 34.9 °F 30.8 °F 28.0 °F 76% 30.88 in 10.0 mi NE 4.6 mph - N/A   Overcast
2:51 AM 36.0 °F 32.1 °F 29.1 °F 76% 30.87 in 6.0 mi NNE 4.6 mph - N/A   Haze
3:51 AM 32.9 °F 29.8 °F 31.1 °F 93% 30.86 in 3.0 mi North 3.5 mph - 0.01 in   Overcast
4:05 AM 33.8 °F 27.7 °F 30.2 °F 87% 30.07 in 2.5 mi NNE 6.9 mph - N/A   Overcast
4:43 AM 33.8 °F 29.6 °F 30.2 °F 87% 30.08 in 1.8 mi NNE 4.6 mph - N/A   Mostly Cloudy
4:51 AM 32.9 °F 29.8 °F 31.1 °F 93% 30.83 in 1.2 mi NNE 3.5 mph - N/A   Mostly Cloudy
5:06 AM 33.8 °F 30.8 °F 30.2 °F 87% 30.06 in 1.5 mi NNE 3.5 mph - N/A   Clear
5:24 AM 33.8 °F - 30.2 °F 87% 30.06 in 2.0 mi Calm Calm - N/A   Partly Cloudy
5:51 AM 32.9 °F - 32.0 °F 96% 30.80 in 2.5 mi Calm Calm - N/A   Partly Cloudy
6:15 AM 33.8 °F 28.6 °F 32.0 °F 93% 30.02 in 3.0 mi NE 5.8 mph - N/A   Mostly Cloudy
7:51 AM 37.9 °F 30.5 °F 36.0 °F 93% 30.73 in 4.0 mi East 11.5 mph - 0.12 in   Overcast
8:07 AM 37.4 °F 29.3 °F 35.6 °F 93% 29.96 in 2.5 mi East 12.7 mph - 0.07 in   Overcast
8:37 AM 39.2 °F 31.2 °F 35.6 °F 87% 29.94 in 4.0 mi East 13.8 mph 20.7 mph 0.16 in   Overcast
9:02 AM 39.2 °F 30.8 °F 37.4 °F 93% 29.93 in 2.5 mi East 15.0 mph 24.2 mph N/A   Overcast
9:41 AM 39.2 °F 31.2 °F 35.6 °F 87% 29.91 in 4.0 mi East 13.8 mph 20.7 mph 0.07 in   Overcast
9:51 AM 38.8 °F 30.4 °F 36.0 °F 89% 30.67 in 3.0 mi East 15.0 mph - 0.09 in   Overcast
9:58 AM 39.2 °F 30.8 °F 35.6 °F 87% 29.90 in 3.0 mi East 15.0 mph 19.6 mph 0.01 in Rain Light Rain
10:14 AM 39.2 °F 30.5 °F 35.6 °F 87% 29.89 in 2.5 mi East 16.1 mph 23.0 mph 0.03 in Rain Light Rain
10:51 AM 39.9 °F 32.1 °F 36.9 °F 89% 30.63 in 2.5 mi East 13.8 mph 21.9 mph 0.07 in Rain Light Rain
11:51 AM 39.9 °F 31.8 °F 36.9 °F 89% 30.59 in 2.5 mi East 15.0 mph 21.9 mph 0.04 in Rain Light Rain
12:51 PM 38.8 °F 30.4 °F 36.0 °F 89% 30.56 in 2.5 mi East 15.0 mph 23.0 mph 0.06 in Rain Light Rain
12:58 PM 39.2 °F 30.8 °F 37.4 °F 93% 29.80 in 1.2 mi East 15.0 mph 21.9 mph 0.01 in Rain Light Rain
1:51 PM 37.9 °F 30.0 °F 34.9 °F 89% 30.55 in 1.5 mi East 12.7 mph 20.7 mph 0.09 in Rain Light Rain
2:51 PM 36.9 °F 28.7 °F 34.0 °F 89% 30.53 in 1.5 mi ENE 12.7 mph 21.9 mph 0.09 in Rain Light Rain
3:51 PM 34.9 °F 26.6 °F 32.9 °F 92% 30.52 in 1.5 mi ENE 11.5 mph - 0.10 in Rain Light Rain
3:58 PM 35.6 °F 28.6 °F 33.8 °F 93% 29.76 in 1.5 mi ENE 9.2 mph 17.3 mph 0.00 in Rain Light Rain
4:16 PM 33.8 °F 27.7 °F 32.0 °F 93% 29.75 in 2.0 mi ENE 6.9 mph - 0.03 in Rain Light Rain
4:23 PM 33.8 °F 28.6 °F 32.0 °F 93% 29.75 in 1.2 mi NE 5.8 mph - 0.04 in Rain Light Rain
4:44 PM 33.8 °F 28.6 °F 32.0 °F 93% 29.75 in 1.8 mi ENE 5.8 mph - 0.06 in Rain Light Rain
4:51 PM 34.0 °F 28.0 °F 32.0 °F 92% 30.50 in 2.5 mi Variable 6.9 mph - 0.07 in Rain Light Rain
5:51 PM 34.0 °F 26.6 °F 32.0 °F 92% 30.49 in 2.0 mi NE 9.2 mph - 0.04 in Rain Light Rain
5:58 PM 33.8 °F 27.7 °F 32.0 °F 93% 29.73 in 1.5 mi NE 6.9 mph - 0.00 in Rain Light Rain
6:16 PM 33.8 °F 25.8 °F 32.0 °F 93% 29.72 in 1.8 mi NE 10.4 mph 16.1 mph 0.02 in Rain Light Rain
6:51 PM 34.0 °F 28.8 °F 32.0 °F 92% 30.48 in 2.0 mi NE 5.8 mph - 0.04 in   Overcast
7:24 PM 33.8 °F 27.0 °F 32.0 °F 93% 29.69 in 4.0 mi NE 8.1 mph - 0.02 in   Overcast
7:41 PM 33.8 °F 27.0 °F 32.0 °F 93% 29.67 in 2.5 mi NE 8.1 mph 17.3 mph 0.03 in   Overcast
7:51 PM 34.0 °F 27.2 °F 32.0 °F 92% 30.43 in 2.5 mi NNE 8.1 mph - 0.04 in   Overcast
8:42 PM 33.8 °F 28.6 °F 32.0 °F 93% 29.67 in 1.8 mi North 5.8 mph - 0.02 in   Overcast
8:51 PM 34.0 °F 28.0 °F 32.0 °F 92% 30.41 in 1.5 mi NNE 6.9 mph - 0.03 in   Overcast
9:34 PM 33.8 °F 25.8 °F 32.0 °F 93% 29.65 in 2.0 mi North 10.4 mph - 0.03 in   Overcast
9:51 PM 34.0 °F 26.6 °F 32.0 °F 92% 30.38 in 2.5 mi North 9.2 mph - 0.03 in   Overcast
10:01 PM 33.8 °F 26.4 °F 32.0 °F 93% 29.62 in 3.0 mi North 9.2 mph - N/A   Overcast
10:51 PM 34.0 °F 26.6 °F 32.0 °F 92% 30.35 in 4.0 mi North 9.2 mph - N/A   Overcast
11:51 PM 34.0 °F 26.0 °F 32.0 °F 92% 30.35 in 4.0 mi North 10.4 mph - N/A   Overcast